Time,TemperatureF,DewpointF,PressureIn,WindDirection,WindDirectionDegrees,WindSpeedMPH,WindSpeedGustMPH,Humidity,HourlyPrecipIn,Conditions,Clouds,dailyrainin,SolarRadiationWatts/m^2,SoftwareType,DateUTC
2013-01-11 00:00:00,35.0,34.0,-100.00,NW,315,5.0,-999.0,95,0.08,,,-99.99,1.160000,,2013-01-11 05:00:00,
2013-01-11 00:33:00,35.0,34.0,-100.00,NW,315,5.0,-999.0,95,0.08,,,-99.99,1.160000,,2013-01-11 05:33:00,
2013-01-11 00:43:00,35.0,34.0,-100.00,NW,315,5.0,-999.0,95,0.08,,,-99.99,1.160000,,2013-01-11 05:43:00,
2013-01-11 00:53:00,35.0,34.0,-100.00,NW,315,5.0,-999.0,95,0.08,,,-99.99,1.160000,,2013-01-11 05:53:00,
2013-01-11 03:00:00,38.0,38.0,-100.00,NW,315,5.0,-999.0,103,0.09,,,-99.99,1.160000,,2013-01-11 08:00:00,
2013-01-11 03:42:00,38.0,38.0,-100.00,NW,315,5.0,-999.0,103,0.09,,,-99.99,1.160000,,2013-01-11 08:42:00,
2013-01-11 03:53:00,38.0,38.0,-100.00,NW,315,5.0,-999.0,103,0.09,,,-99.99,1.160000,,2013-01-11 08:53:00,
2013-01-11 06:00:00,40.0,40.0,-100.00,NNW,337,5.0,-999.0,103,0.06,,,-99.99,1.160000,,2013-01-11 11:00:00,
2013-01-11 06:43:00,40.0,40.0,-100.00,NNW,337,5.0,-999.0,103,0.06,,,-99.99,1.160000,,2013-01-11 11:43:00,
2013-01-11 06:53:00,40.0,40.0,-100.00,NNW,337,5.0,-999.0,103,0.06,,,-99.99,1.160000,,2013-01-11 11:53:00,
2013-01-11 09:00:00,45.0,45.0,-100.00,North,0,7.0,-999.0,104,-99.99,,,-99.99,4.640000,,2013-01-11 14:00:00,
2013-01-11 09:43:00,45.0,45.0,-100.00,North,0,7.0,-999.0,104,-99.99,,,-99.99,4.640000,,2013-01-11 14:43:00,
2013-01-11 09:53:00,45.0,45.0,-100.00,North,0,7.0,-999.0,104,-99.99,,,-99.99,4.640000,,2013-01-11 14:53:00,
2013-01-11 12:00:00,51.0,51.0,-100.00,NNE,22,13.0,-999.0,104,-99.99,,,-99.99,32.480000,,2013-01-11 17:00:00,
2013-01-11 12:43:00,51.0,51.0,-100.00,NNE,22,13.0,-999.0,104,-99.99,,,-99.99,32.480000,,2013-01-11 17:43:00,
2013-01-11 12:53:00,51.0,51.0,-100.00,NNE,22,13.0,-999.0,104,-99.99,,,-99.99,32.480000,,2013-01-11 17:53:00,
2013-01-11 15:00:00,47.0,47.0,-100.00,NE,45,12.0,-999.0,104,-99.99,,,-99.99,58.000000,,2013-01-11 20:00:00,
2013-01-11 15:43:00,47.0,47.0,-100.00,NE,45,12.0,-999.0,104,-99.99,,,-99.99,58.000000,,2013-01-11 20:43:00,
2013-01-11 15:53:00,47.0,47.0,-100.00,NE,45,12.0,-999.0,104,-99.99,,,-99.99,58.000000,,2013-01-11 20:53:00,
2013-01-11 18:00:00,46.0,46.0,-100.00,NNE,22,9.0,-999.0,103,0.01,,,-99.99,2.320000,,2013-01-11 23:00:00,
2013-01-11 18:43:00,46.0,46.0,-100.00,NNE,22,9.0,-999.0,103,0.01,,,-99.99,2.320000,,2013-01-11 23:43:00,
2013-01-11 18:53:00,46.0,46.0,-100.00,NNE,22,9.0,-999.0,103,0.01,,,-99.99,2.320000,,2013-01-11 23:53:00,
2013-01-11 21:00:00,47.0,46.0,-100.00,North,0,6.0,-999.0,97,-99.99,,,-99.99,1.160000,,2013-01-12 02:00:00,
2013-01-11 21:43:00,47.0,46.0,-100.00,North,0,6.0,-999.0,97,-99.99,,,-99.99,1.160000,,2013-01-12 02:43:00,
2013-01-11 21:53:00,47.0,46.0,-100.00,North,0,6.0,-999.0,97,-99.99,,,-99.99,1.160000,,2013-01-12 02:53:00,